| time (UTC) | temp F | wind direction | speed MPH | gust MPH | rain 1hr in | rain 24hr in | rain mn in | humidity % | barometer mb |
| 20260509203006 | 82 | 188 | 2.0 | 6.0 | 0.00 | 0.00 | 0.00 | 39 | 1010.0 |
| 20260509201505 | 81 | 255 | 2.0 | 7.0 | 0.00 | 0.00 | 0.00 | 39 | 1010.1 |
| 20260509200005 | 81 | 195 | 2.0 | 7.0 | 0.00 | 0.00 | 0.00 | 36 | 1010.3 |
| 20260509194504 | 81 | 202 | 3.0 | 5.0 | 0.00 | 0.00 | 0.00 | 41 | 1010.3 |
| 20260509193103 | 81 | 355 | 5.0 | 10.0 | 0.00 | 0.00 | 0.00 | 36 | 1010.5 |
| 20260509191601 | 81 | 52 | 0.0 | 6.0 | 0.00 | 0.00 | 0.00 | 40 | 1010.6 |
| 20260509190101 | 81 | 5 | 1.0 | 4.0 | 0.00 | 0.00 | 0.00 | 38 | 1010.7 |
| 20260509184606 | 80 | 209 | 3.0 | 7.0 | 0.00 | 0.00 | 0.00 | 39 | 1010.8 |
| 20260509183045 | 80 | 209 | 2.0 | 6.0 | 0.00 | 0.00 | 0.00 | 41 | 1010.7 |
| 20260509181549 | 80 | 234 | 3.0 | 7.0 | 0.00 | 0.00 | 0.00 | 41 | 1010.9 |
| 20260509180042 | 80 | 180 | 2.0 | 6.0 | 0.00 | 0.00 | 0.00 | 53 | 1010.8 |
| 20260509174541 | 79 | 55 | 1.0 | 5.0 | 0.00 | 0.00 | 0.00 | 48 | 1010.8 |
| 20260509173038 | 79 | 300 | 1.0 | 5.0 | 0.00 | 0.00 | 0.00 | 52 | 1010.8 |
| 20260509171535 | 78 | 240 | 1.0 | 3.0 | 0.00 | 0.00 | 0.00 | 52 | 1011.0 |
| 20260509170032 | 77 | 349 | 1.0 | 5.0 | 0.00 | 0.00 | 0.00 | 56 | 1011.1 |
| 20260509164527 | 76 | 5 | 2.0 | 6.0 | 0.00 | 0.00 | 0.00 | 54 | 1011.2 |
| 20260509163024 | 76 | 355 | 1.0 | 5.0 | 0.00 | 0.00 | 0.00 | 62 | 1011.1 |
| 20260509161520 | 74 | 253 | 2.0 | 8.0 | 0.00 | 0.00 | 0.00 | 63 | 1011.1 |
| 20260509160014 | 74 | 331 | 0.0 | 4.0 | 0.00 | 0.00 | 0.00 | 66 | 1011.0 |
| 20260509154515 | 73 | 257 | 0.0 | 5.0 | 0.00 | 0.00 | 0.00 | 68 | 1011.1 |
| 20260509153017 | 72 | 15 | 3.0 | 5.0 | 0.00 | 0.00 | 0.00 | 70 | 1011.1 |
| 20260509151505 | 71 | 242 | 1.0 | 5.0 | 0.00 | 0.00 | 0.00 | 71 | 1011.2 |
| 20260509150001 | 70 | 310 | 2.0 | 8.0 | 0.00 | 0.00 | 0.00 | 74 | 1011.7 |
| 20260509144610 | 70 | 325 | 2.0 | 8.0 | 0.00 | 0.00 | 0.00 | 73 | 1011.0 |
| 20260509143117 | 69 | 333 | 2.0 | 4.0 | 0.00 | 0.00 | 0.00 | 78 | 1011.1 |
| 20260509141550 | 68 | 224 | 3.0 | 6.0 | 0.00 | 0.00 | 0.00 | 77 | 1011.1 |
| 20260509140052 | 67 | 297 | 1.0 | 7.0 | 0.00 | 0.00 | 0.00 | 77 | 1011.1 |
| 20260509134600 | 66 | 275 | 3.0 | 9.0 | 0.00 | 0.00 | 0.00 | 80 | 1010.9 |
| 20260509133044 | 64 | 223 | 3.0 | 9.0 | 0.00 | 0.00 | 0.00 | 81 | 1010.9 |
| 20260509131536 | 63 | 279 | 2.0 | 6.0 | 0.00 | 0.00 | 0.00 | 83 | 1010.7 |
| 20260509130031 | 62 | 250 | 2.0 | 5.0 | 0.00 | 0.00 | 0.00 | 86 | 1010.6 |
| 20260509124532 | 60 | 263 | 2.0 | 6.0 | 0.00 | 0.00 | 0.00 | 91 | 1010.5 |
| 20260509123025 | 56 | 264 | 1.0 | 3.0 | 0.00 | 0.00 | 0.00 | 95 | 1010.5 |
| 20260509121538 | 53 | 271 | 0.0 | 0.0 | 0.00 | 0.00 | 0.00 | 95 | 1010.2 |
| 20260509120021 | 52 | 271 | 0.0 | 0.0 | 0.00 | 0.00 | 0.00 | 95 | 1010.1 |
| 20260509114530 | 52 | 271 | 0.0 | 0.0 | 0.00 | 0.00 | 0.00 | 95 | 1010.0 |
| 20260509113024 | 51 | 271 | 0.0 | 0.0 | 0.00 | 0.00 | 0.00 | 94 | 1009.8 |
| 20260509111514 | 51 | 271 | 0.0 | 0.0 | 0.00 | 0.00 | 0.00 | 93 | 1009.7 |
| 20260509110013 | 52 | 271 | 0.0 | 0.0 | 0.00 | 0.00 | 0.00 | 92 | 1009.5 |
| 20260509104516 | 53 | 271 | 0.0 | 0.0 | 0.00 | 0.00 | 0.00 | 92 | 1009.6 |
| 20260509103008 | 53 | 271 | 0.0 | 0.0 | 0.00 | 0.00 | 0.00 | 90 | 1009.7 |
| 20260509101506 | 54 | 271 | 0.0 | 0.0 | 0.00 | 0.00 | 0.00 | 88 | 1009.6 |
| 20260509100006 | 56 | 271 | 0.0 | 0.0 | 0.00 | 0.00 | 0.00 | 86 | 1009.5 |
| 20260509094515 | 58 | 269 | 0.0 | 0.0 | 0.00 | 0.00 | 0.00 | 83 | 1009.6 |
| 20260509093003 | 58 | 252 | 1.0 | 3.0 | 0.00 | 0.00 | 0.00 | 82 | 1009.5 |
| 20260509091502 | 58 | 260 | 1.0 | 4.0 | 0.00 | 0.00 | 0.00 | 83 | 1009.4 |
| 20260509090002 | 58 | 249 | 2.0 | 4.0 | 0.00 | 0.00 | 0.00 | 84 | 1009.4 |
| 20260509083103 | 58 | 257 | 0.0 | 0.0 | 0.00 | 0.00 | 0.00 | 84 | 1009.7 |
| 20260509081611 | 57 | 263 | 0.0 | 1.0 | 0.00 | 0.00 | 0.00 | 86 | 1009.5 |
| 20260509074559 | 56 | 286 | 0.0 | 0.0 | 0.00 | 0.00 | 0.00 | 87 | 1009.4 |
| 20260509073107 | 56 | 270 | 0.0 | 0.0 | 0.00 | 0.00 | 0.00 | 88 | 1009.4 |
| 20260509071600 | 56 | 270 | 0.0 | 1.0 | 0.00 | 0.00 | 0.00 | 90 | 1009.3 |
| 20260509070057 | 54 | 270 | 0.0 | 0.0 | 0.00 | 0.00 | 0.00 | 91 | 1009.2 |
| 20260509064613 | 55 | 270 | 0.0 | 0.0 | 0.00 | 0.00 | 0.00 | 89 | 1009.5 |
| 20260509063051 | 56 | 270 | 0.0 | 0.0 | 0.00 | 0.00 | 0.00 | 88 | 1009.6 |
| 20260509061551 | 56 | 270 | 0.0 | 0.0 | 0.00 | 0.00 | 0.00 | 87 | 1009.9 |
| 20260509060047 | 57 | 270 | 0.0 | 0.0 | 0.00 | 0.00 | 0.00 | 84 | 1010.0 |
| 20260509054557 | 60 | 173 | 0.0 | 4.0 | 0.00 | 0.00 | 0.00 | 80 | 1009.8 |
| 20260509053047 | 59 | 5 | 4.0 | 6.0 | 0.00 | 0.00 | 0.00 | 81 | 1009.8 |
| 20260509051541 | 60 | 19 | 2.0 | 4.0 | 0.00 | 0.00 | 0.00 | 79 | 1009.7 |
| 20260509050039 | 60 | 194 | 0.0 | 2.0 | 0.00 | 0.00 | 0.00 | 78 | 1009.2 |
| 20260509044539 | 63 | 16 | 1.0 | 3.0 | 0.00 | 0.00 | 0.00 | 73 | 1009.7 |
| 20260509043038 | 64 | 176 | 2.0 | 3.0 | 0.00 | 0.00 | 0.00 | 71 | 1009.6 |
| 20260509041606 | 65 | 313 | 1.0 | 5.0 | 0.00 | 0.00 | 0.00 | 68 | 1009.7 |
| 20260509040038 | 65 | 191 | 3.0 | 11.0 | 0.00 | 0.00 | 0.00 | 69 | 1008.7 |
| 20260509034532 | 65 | 192 | 6.0 | 12.0 | 0.00 | 0.00 | 0.00 | 69 | 1008.3 |
| 20260509033031 | 64 | 205 | 3.0 | 5.0 | 0.00 | 0.00 | 0.00 | 70 | 1009.4 |
| 20260509031535 | 65 | 172 | 1.0 | 5.0 | 0.00 | 0.00 | 0.00 | 70 | 1009.6 |
| 20260509030032 | 65 | 198 | 3.0 | 8.0 | 0.00 | 0.00 | 0.00 | 70 | 1009.8 |
| 20260509024529 | 65 | 189 | 3.0 | 6.0 | 0.00 | 0.00 | 0.00 | 70 | 1010.2 |
| 20260509023029 | 65 | 199 | 3.0 | 6.0 | 0.00 | 0.00 | 0.00 | 69 | 1010.1 |
| 20260509021534 | 65 | 178 | 2.0 | 6.0 | 0.00 | 0.00 | 0.00 | 70 | 1010.0 |
| 20260509020041 | 65 | 167 | 2.0 | 5.0 | 0.00 | 0.00 | 0.00 | 69 | 1010.0 |
| 20260509014527 | 65 | 225 | 1.0 | 4.0 | 0.00 | 0.00 | 0.00 | 69 | 1010.1 |
| 20260509013037 | 66 | 178 | 1.0 | 3.0 | 0.00 | 0.00 | 0.00 | 67 | 1009.7 |
| 20260509011525 | 66 | 173 | 2.0 | 6.0 | 0.00 | 0.00 | 0.00 | 68 | 1009.4 |
| 20260509010024 | 67 | 196 | 1.0 | 4.0 | 0.00 | 0.00 | 0.00 | 66 | 1009.6 |
| 20260509004527 | 68 | 168 | 0.0 | 2.0 | 0.00 | 0.00 | 0.00 | 66 | 1009.1 |
| 20260509003022 | 69 | 190 | 1.0 | 8.0 | 0.00 | 0.00 | 0.00 | 62 | 1009.1 |
| 20260509001521 | 70 | 198 | 3.0 | 6.0 | 0.00 | 0.00 | 0.00 | 60 | 1009.1 |
| 20260509000021 | 71 | 167 | 3.0 | 10.0 | 0.00 | 0.00 | 0.00 | 60 | 1009.2 |
| 20260508234524 | 72 | 170 | 2.0 | 9.0 | 0.00 | 0.00 | 0.00 | 58 | 1009.1 |
| 20260508233021 | 73 | 202 | 3.0 | 6.0 | 0.00 | 0.00 | 0.00 | 58 | 1009.1 |
| 20260508231519 | 73 | 163 | 3.0 | 10.0 | 0.00 | 0.00 | 0.00 | 57 | 1009.2 |
| 20260508230019 | 73 | 202 | 4.0 | 9.0 | 0.00 | 0.00 | 0.00 | 57 | 1009.3 |
| 20260508224523 | 74 | 184 | 3.0 | 11.0 | 0.00 | 0.00 | 0.00 | 57 | 1009.4 |
| 20260508223015 | 74 | 190 | 5.0 | 9.0 | 0.00 | 0.00 | 0.00 | 56 | 1009.4 |
| 20260508221514 | 75 | 181 | 6.0 | 11.0 | 0.00 | 0.00 | 0.00 | 55 | 1009.3 |
| 20260508220018 | 74 | 164 | 3.0 | 8.0 | 0.00 | 0.00 | 0.00 | 57 | 1009.4 |
| 20260508214523 | 75 | 180 | 5.0 | 8.0 | 0.00 | 0.00 | 0.00 | 56 | 1009.6 |
| 20260508213009 | 75 | 232 | 4.0 | 10.0 | 0.00 | 0.00 | 0.00 | 57 | 1009.8 |
| 20260508211520 | 75 | 211 | 4.0 | 11.0 | 0.00 | 0.00 | 0.00 | 56 | 1009.8 |
| 20260508210005 | 75 | 230 | 4.0 | 7.0 | 0.00 | 0.00 | 0.00 | 53 | 1010.0 |
| 20260508204506 | 74 | 205 | 2.0 | 7.0 | 0.00 | 0.00 | 0.00 | 54 | 1010.1 |